VR2HK-13 Weather Reports


Display with metric or nautical units.
time (UTC)temp
F
wind
direction
speed
MPH
gust
MPH
rain 1hr
in
rain 24hr
in
rain mn
in
humidity
%
barometer
mb
20260510095534 76 57 1.0 5.0 0.03 0.59 0.00 78 1013.5
20260510095052 76 22 2.0 7.0 0.04 0.59 0.00 78 1013.6
20260510095024 76 31 1.0 7.0 0.04 0.59 0.00 78 1013.5
20260510094553 76 23 1.0 6.0 0.04 0.59 0.00 77 1013.6
20260510094514 76 22 1.0 6.0 0.04 0.59 0.00 77 1013.6
20260510094052 76 61 2.0 8.0 0.05 0.59 0.00 77 1013.7
20260510093552 77 166 2.0 4.0 0.05 0.59 0.00 77 1013.6
20260510093454 77 228 1.0 4.0 0.05 0.59 0.00 77 1013.6
20260510093053 77 251 2.0 3.0 0.07 0.59 0.00 76 1013.5
20260510092944 77 235 0.0 6.0 0.09 0.59 0.00 76 1013.6
20260510092552 77 87 2.0 8.0 0.09 0.59 0.00 76 1013.5
20260510092434 77 34 4.0 8.0 0.09 0.59 0.00 76 1013.5
20260510092053 77 297 1.0 7.0 0.11 0.59 0.00 76 1013.5
20260510091924 77 230 1.0 7.0 0.11 0.59 0.00 76 1013.4
20260510091552 77 240 2.0 4.0 0.12 0.59 0.00 77 1013.4
20260510091413 77 35 1.0 6.0 0.12 0.59 0.00 78 1013.4
20260510091052 76 81 2.0 10.0 0.12 0.59 0.00 77 1013.3
20260510090904 76 49 4.0 10.0 0.12 0.57 0.00 77 1013.3
20260510090553 76 271 2.0 10.0 0.12 0.57 0.00 77 1013.3
20260510090353 76 10 4.0 10.0 0.14 0.57 0.00 77 1013.3
20260510090052 76 86 4.0 7.0 0.12 0.56 0.00 77 1013.4
20260510085843 76 318 1.0 6.0 0.14 0.56 0.00 77 1013.4
20260510085552 76 47 3.0 6.0 0.12 0.55 0.00 77 1013.3
20260510085334 76 29 2.0 13.0 0.12 0.55 0.00 77 1013.4
20260510085052 76 47 4.0 13.0 0.11 0.54 0.00 76 1013.3
20260510084823 77 6 3.0 7.0 0.12 0.54 0.00 76 1013.3
20260510084552 77 29 4.0 7.0 0.12 0.54 0.00 76 1013.3
20260510084314 77 14 1.0 4.0 0.12 0.53 0.00 77 1013.3
20260510084052 77 316 0.0 5.0 0.14 0.53 0.00 77 1013.3
20260510083803 77 274 2.0 6.0 0.14 0.53 0.00 76 1013.3
20260510083552 77 248 2.0 6.0 0.15 0.53 0.00 76 1013.3
20260510083254 77 231 2.0 7.0 0.14 0.51 0.00 76 1013.3
20260510083052 77 269 4.0 7.0 0.15 0.51 0.00 76 1013.3
20260510082743 77 346 2.0 5.0 0.14 0.49 0.00 76 1013.4
20260510082552 77 308 0.0 4.0 0.15 0.49 0.00 76 1013.3
20260510082233 77 276 1.0 4.0 0.12 0.47 0.00 77 1013.4
20260510082052 77 211 1.0 4.0 0.14 0.47 0.00 77 1013.4
20260510081723 77 283 1.0 6.0 0.17 0.47 0.00 76 1013.4
20260510081552 77 317 2.0 6.0 0.16 0.46 0.00 77 1013.4
20260510081213 77 268 3.0 7.0 0.17 0.46 0.00 77 1013.5
20260510081052 77 279 2.0 7.0 0.17 0.46 0.00 77 1013.5
20260510080703 77 287 3.0 7.0 0.18 0.44 0.00 77 1013.4
20260510080551 77 321 2.0 7.0 0.18 0.44 0.00 77 1013.3
20260510080153 77 275 2.0 8.0 0.20 0.43 0.00 77 1013.3
20260510080052 77 272 3.0 9.0 0.20 0.43 0.00 77 1013.3
20260510075644 77 228 4.0 12.0 0.20 0.42 0.00 76 1013.3
20260510075551 77 260 4.0 12.0 0.20 0.42 0.00 76 1013.3
20260510075133 77 244 3.0 10.0 0.22 0.42 0.00 77 1013.3
20260510075052 77 323 1.0 13.0 0.22 0.42 0.00 77 1013.3
20260510074623 77 291 6.0 13.0 0.21 0.41 0.00 77 1013.2
20260510074552 77 237 4.0 9.0 0.21 0.41 0.00 77 1013.2
20260510074113 76 198 4.0 9.0 0.20 0.38 0.00 77 1013.1
20260510074052 76 245 4.0 9.0 0.20 0.38 0.00 77 1013.1
20260510073603 76 272 4.0 10.0 0.20 0.37 0.00 77 1013.1
20260510073552 76 236 4.0 10.0 0.20 0.37 0.00 77 1013.2
20260510073051 77 257 7.0 13.0 0.22 0.36 0.00 77 1013.2
20260510072552 76 197 2.0 9.0 0.20 0.34 0.00 78 1013.3
20260510072543 76 239 2.0 9.0 0.20 0.34 0.00 78 1013.2
20260510072051 76 242 2.0 4.0 0.21 0.33 0.00 78 1013.3
20260510072032 76 246 2.0 4.0 0.18 0.30 0.00 77 1013.4
20260510071552 76 226 2.0 10.0 0.18 0.29 0.00 77 1013.4
20260510071523 76 253 3.0 11.0 0.17 0.28 0.00 77 1013.5
20260510071051 76 203 7.0 11.0 0.18 0.28 0.00 77 1013.5
20260510071012 76 220 7.0 9.0 0.18 0.28 0.00 77 1013.5
20260510070552 76 1 2.0 11.0 0.17 0.25 0.00 78 1013.5
20260510070503 76 338 2.0 11.0 0.17 0.25 0.00 78 1013.6
20260510070051 76 222 7.0 11.0 0.15 0.23 0.00 78 1013.6
20260510065952 76 232 2.0 8.0 0.15 0.23 0.00 78 1013.7
20260510065551 76 237 2.0 8.0 0.15 0.22 0.00 77 1013.7
20260510065051 76 256 5.0 9.0 0.14 0.20 0.00 77 1013.8
20260510064932 76 204 4.0 9.0 0.14 0.20 0.00 77 1013.7
20260510064551 76 165 2.0 8.0 0.14 0.20 0.00 78 1013.8
20260510064423 76 242 3.0 8.0 0.15 0.20 0.00 77 1013.8
20260510064052 76 325 3.0 9.0 0.14 0.18 0.00 78 1013.9
20260510063912 76 46 3.0 10.0 0.14 0.18 0.00 78 1013.9
20260510063551 76 78 5.0 10.0 0.12 0.17 0.00 78 1013.9
20260510063402 76 14 2.0 8.0 0.11 0.16 0.00 78 1014.0
20260510063051 76 9 1.0 5.0 0.09 0.14 0.00 78 1014.1
20260510062853 76 9 2.0 5.0 0.09 0.14 0.00 78 1014.1
20260510062551 76 347 2.0 3.0 0.09 0.14 0.00 78 1014.2
20260510062342 76 39 1.0 13.0 0.08 0.12 0.00 78 1014.1
20260510062051 75 360 4.0 13.0 0.07 0.11 0.00 78 1014.2
20260510061833 76 3 5.0 10.0 0.05 0.10 0.00 78 1014.3
20260510061550 76 58 2.0 6.0 0.05 0.10 0.00 78 1014.3
20260510061322 76 52 2.0 5.0 0.05 0.10 0.00 78 1014.3
20260510060812 76 317 2.0 7.0 0.05 0.08 0.00 78 1014.3
20260510060551 76 229 3.0 7.0 0.05 0.08 0.00 78 1014.4
20260510060301 76 35 1.0 10.0 0.05 0.08 0.00 78 1014.4
20260510060051 76 353 1.0 11.0 0.05 0.08 0.00 78 1014.4
20260510055752 76 37 5.0 11.0 0.04 0.07 0.00 78 1014.5
20260510055551 76 69 3.0 6.0 0.03 0.05 0.00 78 1014.5
20260510055242 76 312 2.0 6.0 0.04 0.05 0.00 78 1014.5
20260510055051 76 322 1.0 6.0 0.04 0.05 0.00 78 1014.5
20260510054732 76 31 2.0 9.0 0.04 0.05 0.00 78 1014.5
20260510054551 76 23 3.0 9.0 0.03 0.04 0.00 78 1014.6
20260510054222 76 2 1.0 7.0 0.03 0.04 0.00 78 1014.6
20260510054051 76 4 3.0 7.0 0.03 0.04 0.00 78 1014.7
20260510053712 76 250 2.0 7.0 0.03 0.04 0.00 78 1014.8
20260510053550 76 253 3.0 11.0 0.03 0.04 0.00 78 1014.8
20260510053202 76 48 6.0 11.0 0.03 0.04 0.00 78 1014.8
20260510053050 76 3 2.0 6.0 0.03 0.04 0.00 78 1014.7
20260510052652 76 13 4.0 10.0 0.04 0.04 0.00 78 1014.8
20260510052551 76 36 0.0 10.0 0.04 0.04 0.00 78 1014.8
20260510052141 76 11 4.0 10.0 0.04 0.04 0.00 78 1014.8
20260510052050 76 29 4.0 6.0 0.04 0.04 0.00 78 1014.9
20260510051632 76 360 2.0 11.0 0.04 0.04 0.00 78 1014.9
20260510051551 76 15 3.0 11.0 0.04 0.04 0.00 77 1014.9
20260510051122 76 285 1.0 10.0 0.04 0.04 0.00 78 1014.9
20260510051050 76 273 1.0 11.0 0.04 0.04 0.00 78 1014.9
20260510050612 76 52 5.0 11.0 0.02 0.02 0.00 78 1014.9
20260510050550 76 74 3.0 7.0 0.02 0.02 0.00 78 1014.9
20260510050051 76 40 2.0 5.0 0.02 0.02 0.00 78 1014.9
20260510045552 75 67 1.0 7.0 0.02 0.02 0.00 79 1015.0
20260510045550 75 67 1.0 7.0 0.02 0.02 0.00 79 1015.0
20260510045050 75 56 4.0 8.0 0.01 0.01 0.00 78 1015.0
20260510045042 75 29 4.0 8.0 0.01 0.01 0.00 78 1015.0
20260510044551 75 349 1.0 7.0 0.01 0.01 0.00 78 1015.1
20260510044531 75 341 2.0 7.0 0.01 0.01 0.00 78 1015.1
20260510044050 76 360 1.0 8.0 0.01 0.01 0.00 79 1015.1
20260510044022 75 360 0.0 9.0 0.01 0.01 0.00 79 1015.1
20260510043551 75 53 4.0 12.0 0.01 0.01 0.00 79 1015.2
20260510043511 75 328 2.0 12.0 0.01 0.01 0.00 79 1015.1
20260510043050 75 3 3.0 7.0 0.01 0.01 0.00 79 1015.2
20260510043002 75 43 2.0 7.0 0.01 0.01 0.00 78 1015.1
20260510042549 75 73 4.0 7.0 0.00 0.00 0.00 78 1015.2
20260510042451 76 18 2.0 7.0 0.00 0.00 0.00 78 1015.2
20260510042050 76 46 2.0 8.0 0.00 0.00 0.00 78 1015.2
20260510041942 76 58 2.0 8.0 0.00 0.00 0.00 79 1015.3
20260510041550 75 11 2.0 6.0 0.00 0.00 0.00 78 1015.3
20260510041431 75 37 0.0 12.0 0.00 0.00 0.00 78 1015.3
20260510041050 76 48 4.0 12.0 0.00 0.00 0.00 78 1015.4
20260510040921 76 24 0.0 4.0 0.00 0.00 0.00 79 1015.5
20260510040550 75 253 2.0 7.0 0.00 0.00 0.00 79 1015.5
20260510040411 75 252 2.0 7.0 0.00 0.00 0.00 79 1015.4
20260510040049 75 274 1.0 4.0 0.00 0.00 0.00 79 1015.4
20260510035901 75 43 2.0 7.0 0.00 0.00 0.00 79 1015.4
20260510035550 75 17 4.0 7.0 0.00 0.00 0.00 79 1015.4
20260510035351 75 21 2.0 6.0 0.00 0.00 0.00 79 1015.4
20260510035049 75 28 2.0 5.0 0.00 0.00 0.00 79 1015.5
20260510034841 75 307 0.0 4.0 0.00 0.00 0.00 79 1015.5
20260510034551 75 55 1.0 4.0 0.00 0.00 0.00 79 1015.5
20260510034331 75 335 0.0 6.0 0.00 0.00 0.00 79 1015.5
20260510034050 75 161 2.0 8.0 0.00 0.00 0.00 79 1015.5
20260510033821 75 259 3.0 8.0 0.00 0.00 0.00 80 1015.5
20260510033550 75 293 1.0 5.0 0.00 0.00 0.00 80 1015.5
20260510033311 75 226 2.0 5.0 0.00 0.00 0.00 80 1015.5
20260510033050 75 238 3.0 5.0 0.00 0.00 0.00 80 1015.5
20260510032801 75 313 1.0 8.0 0.00 0.00 0.00 80 1015.5
20260510032550 75 232 4.0 8.0 0.00 0.00 0.00 80 1015.6
20260510032251 75 235 2.0 9.0 0.00 0.00 0.00 80 1015.6
20260510032050 75 4 1.0 9.0 0.00 0.00 0.00 80 1015.6
20260510031549 75 39 3.0 13.0 0.00 0.00 0.00 79 1015.7
20260510031050 75 97 4.0 5.0 0.00 0.00 0.00 79 1015.6
20260510030721 75 5 0.0 3.0 0.00 0.00 0.00 79 1015.6
20260510030549 75 336 0.0 4.0 0.00 0.00 0.00 80 1015.6
20260510030211 75 38 1.0 8.0 0.00 0.00 0.00 79 1015.6
20260510030050 75 325 0.0 9.0 0.00 0.00 0.00 80 1015.6
20260510025701 75 54 5.0 10.0 0.00 0.00 0.00 79 1015.8
20260510025549 75 48 3.0 10.0 0.00 0.00 0.00 79 1015.7
20260510025151 75 353 1.0 8.0 0.00 0.00 0.00 80 1015.8
20260510025049 75 54 1.0 8.0 0.00 0.00 0.00 79 1015.7
20260510024641 75 304 1.0 7.0 0.00 0.00 0.00 79 1015.8
20260510024549 75 336 2.0 7.0 0.00 0.00 0.00 79 1015.8
20260510024131 75 58 2.0 7.0 0.00 0.00 0.00 79 1015.9
20260510024049 75 32 2.0 8.0 0.00 0.00 0.00 79 1015.9
20260510023621 75 327 6.0 11.0 0.00 0.00 0.00 79 1016.0
20260510023550 75 84 4.0 11.0 0.00 0.00 0.00 79 1016.1
20260510023110 75 352 2.0 7.0 0.00 0.00 0.00 79 1016.1
20260510023049 75 8 1.0 5.0 0.00 0.00 0.00 79 1016.1
20260510022601 75 46 2.0 8.0 0.00 0.00 0.00 79 1016.1
20260510022549 75 50 2.0 8.0 0.00 0.00 0.00 79 1016.1
20260510022052 75 50 1.0 4.0 0.00 0.00 0.00 79 1016.1
20260510022050 75 48 1.0 4.0 0.00 0.00 0.00 79 1016.1
20260510021549 75 32 3.0 7.0 0.00 0.00 0.00 79 1016.2
20260510021541 75 66 4.0 7.0 0.00 0.00 0.00 79 1016.2
20260510021048 75 52 3.0 8.0 0.00 0.00 0.00 79 1016.2
20260510020549 75 35 2.0 8.0 0.00 0.00 0.00 79 1016.1
20260510020520 75 83 1.0 8.0 0.00 0.00 0.00 79 1016.1
20260510020049 75 343 2.0 11.0 0.00 0.00 0.00 79 1016.1
20260510020011 75 26 4.0 11.0 0.00 0.00 0.00 79 1016.2
20260510015549 75 102 2.0 9.0 0.00 0.00 0.00 79 1016.1
20260510015500 75 67 2.0 9.0 0.00 0.00 0.00 79 1016.2
20260510015049 75 21 1.0 7.0 0.00 0.00 0.00 79 1016.2
20260510014951 75 359 0.0 7.0 0.00 0.00 0.00 79 1016.1
20260510014548 75 28 2.0 7.0 0.00 0.00 0.00 79 1016.2
20260510014440 75 41 3.0 7.0 0.00 0.00 0.00 79 1016.1
20260510014049 75 0 1.0 13.0 0.00 0.00 0.00 79 1016.1
20260510013930 75 40 4.0 13.0 0.00 0.00 0.00 79 1016.1
20260510013548 75 135 2.0 7.0 0.00 0.00 0.00 79 1016.1
20260510013420 75 336 0.0 5.0 0.00 0.00 0.00 79 1016.1
20260510013049 75 20 2.0 5.0 0.00 0.00 0.00 79 1016.1
20260510012548 75 341 0.0 5.0 0.00 0.00 0.00 79 1016.1
20260510012400 75 95 0.0 10.0 0.00 0.00 0.00 79 1016.0
20260510012049 75 47 5.0 10.0 0.00 0.00 0.00 79 1016.0
20260510011850 75 41 2.0 8.0 0.00 0.00 0.00 79 1016.0
20260510011548 75 301 1.0 9.0 0.00 0.00 0.00 79 1016.0
20260510011340 75 235 6.0 9.0 0.00 0.00 0.00 79 1016.0
20260510010830 75 23 4.0 7.0 0.00 0.00 0.00 79 1015.9
20260510010548 75 314 1.0 5.0 0.00 0.00 0.00 79 1015.9
20260510010320 74 66 0.0 7.0 0.00 0.00 0.00 79 1015.9
20260510010048 74 0 2.0 7.0 0.00 0.00 0.00 79 1015.9
20260510005810 74 27 3.0 11.0 0.00 0.00 0.00 79 1015.8
20260510005549 74 294 4.0 11.0 0.00 0.00 0.00 79 1015.8
20260510005258 74 42 4.0 14.0 0.00 0.00 0.00 79 1015.7
20260510005048 74 320 0.0 17.0 0.00 0.00 0.00 79 1015.7
20260510004750 74 63 4.0 17.0 0.00 0.00 0.00 79 1015.7
20260510004549 74 49 2.0 10.0 0.00 0.00 0.00 80 1015.6
20260510004239 74 18 1.0 10.0 0.00 0.00 0.00 79 1015.5
20260510004048 74 18 3.0 10.0 0.00 0.00 0.00 79 1015.5
20260510003730 74 323 2.0 10.0 0.00 0.00 0.00 79 1015.5
20260510003548 74 42 3.0 13.0 0.00 0.00 0.00 79 1015.6
20260510003220 74 85 8.0 12.0 0.00 0.00 0.00 79 1015.6
20260510003049 74 58 2.0 10.0 0.00 0.00 0.00 80 1015.6
20260510002709 74 278 3.0 11.0 0.00 0.00 0.00 80 1015.4
20260510002548 74 293 5.0 11.0 0.00 0.00 0.00 80 1015.4
20260510002200 74 296 4.0 11.0 0.00 0.00 0.00 80 1015.3
20260510002048 74 33 1.0 11.0 0.00 0.00 0.00 80 1015.3
20260510001650 74 34 5.0 17.0 0.00 0.00 0.00 80 1015.4
20260510001548 74 31 5.0 17.0 0.00 0.00 0.00 80 1015.4
20260510001139 74 12 2.0 12.0 0.00 0.00 0.00 80 1015.4
20260510001048 74 343 2.0 12.0 0.00 0.00 0.00 80 1015.4
20260510000630 74 36 4.0 13.0 0.00 0.00 0.00 80 1015.4
20260510000548 74 78 5.0 13.0 0.00 0.00 0.00 80 1015.4
20260510000119 74 334 2.0 19.0 0.00 0.00 0.00 80 1015.3
20260510000048 74 340 4.0 19.0 0.00 0.00 0.00 80 1015.3
20260509235548 74 266 6.0 11.0 0.00 0.00 0.00 80 1015.4
20260509235059 74 343 4.0 9.0 0.00 0.00 0.00 81 1015.3
20260509235047 74 17 4.0 9.0 0.00 0.00 0.00 81 1015.4
20260509234550 74 348 5.0 15.0 0.00 0.00 0.00 81 1015.3
20260509234548 74 323 5.0 15.0 0.00 0.00 0.00 81 1015.3
20260509234048 74 50 2.0 11.0 0.00 0.00 0.00 81 1015.3
20260509234039 74 69 3.0 11.0 0.00 0.00 0.00 81 1015.3
20260509233548 74 360 4.0 9.0 0.00 0.00 0.00 81 1015.2
20260509233529 74 15 3.0 9.0 0.00 0.00 0.00 81 1015.2
20260509233048 73 337 0.0 11.0 0.00 0.00 0.00 81 1015.1
20260509233019 73 299 0.0 11.0 0.00 0.00 0.00 81 1015.1
20260509232547 73 2 4.0 13.0 0.00 0.00 0.00 81 1015.1
20260509232509 74 14 6.0 13.0 0.00 0.00 0.00 82 1015.1
20260509232048 74 340 2.0 7.0 0.00 0.00 0.00 82 1015.0
20260509231959 74 354 1.0 5.0 0.00 0.00 0.00 82 1015.0
20260509231548 73 282 0.0 5.0 0.00 0.00 0.00 81 1014.9
20260509231448 73 87 0.0 5.0 0.00 0.00 0.00 81 1014.9
20260509231047 74 305 1.0 8.0 0.00 0.00 0.00 81 1014.9
20260509230939 73 260 2.0 8.0 0.00 0.00 0.00 81 1015.0
20260509230548 74 333 0.0 7.0 0.00 0.00 0.00 81 1015.0
20260509230429 74 277 1.0 8.0 0.00 0.00 0.00 81 1015.0
20260509230047 74 24 3.0 11.0 0.00 0.00 0.00 80 1014.9
20260509225919 74 30 5.0 11.0 0.00 0.00 0.00 80 1014.9
20260509225548 74 45 2.0 4.0 0.00 0.00 0.00 80 1014.9
20260509225409 74 288 3.0 4.0 0.00 0.00 0.00 80 1014.9
20260509225047 74 97 1.0 5.0 0.00 0.00 0.00 80 1014.8
20260509224859 74 273 2.0 8.0 0.00 0.00 0.00 80 1014.8
20260509224547 74 208 2.0 10.0 0.00 0.00 0.00 80 1014.7
20260509224349 74 211 4.0 9.0 0.00 0.00 0.00 80 1014.7
20260509224047 74 319 1.0 6.0 0.00 0.00 0.00 80 1014.6
20260509223838 74 179 4.0 6.0 0.00 0.00 0.00 80 1014.6
20260509223547 74 274 1.0 6.0 0.00 0.00 0.00 80 1014.4
20260509223329 74 246 3.0 6.0 0.00 0.00 0.00 80 1014.4
20260509223048 74 357 0.0 7.0 0.00 0.00 0.00 80 1014.4
20260509222818 74 291 0.0 7.0 0.00 0.00 0.00 80 1014.4
20260509222547 74 356 1.0 5.0 0.00 0.00 0.00 80 1014.4
20260509222309 74 279 0.0 3.0 0.00 0.00 0.00 80 1014.4
20260509222048 74 321 0.0 3.0 0.00 0.00 0.00 80 1014.3
20260509221758 74 227 2.0 3.0 0.00 0.00 0.00 80 1014.4
20260509221547 74 339 0.0 7.0 0.00 0.00 0.00 80 1014.3
20260509221248 74 217 3.0 7.0 0.00 0.00 0.00 80 1014.4
20260509221047 74 272 2.0 4.0 0.00 0.00 0.00 80 1014.4
20260509220739 74 3 1.0 8.0 0.00 0.00 0.00 80 1014.4
20260509220547 74 35 5.0 12.0 0.00 0.00 0.00 80 1014.4
20260509220228 74 313 7.0 12.0 0.00 0.00 0.00 80 1014.4
20260509220047 74 234 6.0 12.0 0.00 0.00 0.00 80 1014.3
20260509215719 74 307 5.0 10.0 0.00 0.00 0.00 80 1014.2
20260509215548 74 311 1.0 13.0 0.00 0.00 0.00 80 1014.2
20260509215208 74 351 5.0 13.0 0.00 0.00 0.00 80 1014.2
20260509215047 74 332 5.0 12.0 0.00 0.00 0.00 80 1014.2
20260509214659 74 181 8.0 12.0 0.00 0.00 0.00 80 1014.1
20260509214547 74 255 3.0 7.0 0.00 0.00 0.00 80 1014.1
20260509214148 74 329 0.0 6.0 0.00 0.00 0.00 80 1014.0
20260509214047 74 56 3.0 6.0 0.00 0.00 0.00 80 1014.1
20260509213638 74 315 1.0 7.0 0.00 0.00 0.00 80 1014.1
20260509213547 74 360 1.0 9.0 0.00 0.00 0.00 80 1014.0
20260509213129 74 223 6.0 9.0 0.00 0.00 0.00 80 1014.0
20260509213047 74 218 6.0 9.0 0.00 0.00 0.00 80 1014.0
20260509212618 74 266 1.0 4.0 0.00 0.00 0.00 80 1014.0
20260509212547 74 249 1.0 4.0 0.00 0.00 0.00 80 1014.0
20260509212108 74 276 2.0 7.0 0.00 0.00 0.00 80 1013.9
20260509212047 74 186 3.0 7.0 0.00 0.00 0.00 80 1013.9
20260509211557 74 59 2.0 6.0 0.00 0.00 0.00 80 1014.0
20260509211547 74 68 1.0 4.0 0.00 0.00 0.00 80 1014.0
20260509211049 74 175 1.0 5.0 0.00 0.00 0.00 80 1013.8
20260509210538 74 287 1.0 8.0 0.00 0.00 0.00 80 1013.7
20260509210046 74 255 1.0 5.0 0.00 0.00 0.00 80 1013.7
20260509210028 74 268 3.0 5.0 0.00 0.00 0.00 80 1013.7
20260509205546 74 220 3.0 4.0 0.00 0.00 0.00 80 1013.8
20260509205047 74 276 0.0 4.0 0.00 0.00 0.00 80 1013.8
20260509205008 74 305 0.0 4.0 0.00 0.00 0.00 80 1013.8
20260509204546 74 228 2.0 7.0 0.00 0.00 0.00 80 1013.7
20260509204457 74 238 4.0 7.0 0.00 0.00 0.00 80 1013.8
20260509204046 74 353 4.0 7.0 0.00 0.00 0.00 80 1013.7
20260509203948 74 341 2.0 7.0 0.00 0.00 0.00 80 1013.7
20260509203547 74 300 1.0 5.0 0.00 0.00 0.00 80 1013.7
20260509203438 74 42 0.0 5.0 0.00 0.00 0.00 80 1013.7
20260509203046 74 360 3.0 7.0 0.00 0.00 0.00 80 1013.6
20260509202927 74 59 2.0 7.0 0.00 0.00 0.00 80 1013.7
20260509202546 74 328 1.0 3.0 0.00 0.00 0.00 80 1013.6
20260509202418 74 245 1.0 11.0 0.00 0.00 0.00 80 1013.7
20260509202047 74 71 5.0 11.0 0.00 0.00 0.00 80 1013.7
20260509201907 74 20 2.0 6.0 0.00 0.00 0.00 80 1013.8
20260509201545 74 228 0.0 4.0 0.00 0.00 0.00 81 1013.7
20260509201357 74 317 0.0 4.0 0.00 0.00 0.00 81 1013.7
20260509201046 74 305 1.0 2.0 0.00 0.00 0.00 80 1013.7
20260509200848 74 272 0.0 5.0 0.00 0.00 0.00 80 1013.7
20260509200546 74 303 1.0 5.0 0.00 0.00 0.00 80 1013.7
20260509200338 74 302 2.0 6.0 0.00 0.00 0.00 80 1013.7
20260509200046 74 66 4.0 7.0 0.00 0.00 0.00 80 1013.7
20260509195827 74 285 1.0 7.0 0.00 0.00 0.00 80 1013.8
20260509195546 74 27 2.0 7.0 0.00 0.00 0.00 80 1013.8
20260509195318 74 329 3.0 7.0 0.00 0.00 0.00 80 1013.7
20260509195046 74 308 2.0 8.0 0.00 0.00 0.00 80 1013.7
20260509194807 74 46 3.0 10.0 0.00 0.00 0.00 80 1013.7
20260509194546 74 17 3.0 10.0 0.00 0.00 0.00 80 1013.7
20260509194257 74 261 1.0 11.0 0.00 0.00 0.00 80 1013.7
20260509194046 74 286 2.0 12.0 0.00 0.00 0.00 80 1013.7
20260509193747 74 241 7.0 12.0 0.00 0.00 0.00 80 1013.7
20260509193546 74 249 8.0 12.0 0.00 0.00 0.00 80 1013.7
20260509193237 74 307 1.0 7.0 0.00 0.00 0.00 80 1013.7
20260509193046 74 2 1.0 7.0 0.00 0.00 0.00 80 1013.8
20260509192546 74 259 1.0 2.0 0.00 0.00 0.00 80 1013.8
20260509192217 74 20 0.0 5.0 0.00 0.00 0.00 80 1013.9
20260509192046 74 13 1.0 9.0 0.00 0.00 0.00 80 1013.9
20260509191707 74 221 6.0 9.0 0.00 0.00 0.00 80 1013.9
20260509191546 74 275 6.0 8.0 0.00 0.00 0.00 80 1013.9
20260509191157 74 243 2.0 4.0 0.00 0.00 0.00 80 1014.0
20260509191046 74 264 1.0 5.0 0.00 0.00 0.00 80 1014.0
20260509190647 74 325 0.0 10.0 0.00 0.00 0.00 80 1013.9
20260509190545 74 192 1.0 10.0 0.00 0.00 0.00 80 1013.9
20260509190137 74 18 2.0 7.0 0.00 0.00 0.00 80 1013.8
20260509190046 74 3 3.0 7.0 0.00 0.00 0.00 80 1013.9
20260509185627 74 332 1.0 5.0 0.00 0.00 0.00 80 1013.8
20260509185545 74 300 3.0 5.0 0.00 0.00 0.00 80 1013.8
20260509185117 74 360 2.0 7.0 0.00 0.00 0.00 80 1013.9
20260509185046 74 16 2.0 8.0 0.00 0.00 0.00 80 1013.9
20260509184545 74 42 2.0 11.0 0.00 0.00 0.00 80 1014.0
20260509184057 74 312 1.0 9.0 0.00 0.00 0.00 80 1014.0
20260509184046 74 52 1.0 9.0 0.00 0.00 0.00 80 1014.0
20260509183548 74 5 5.0 15.0 0.00 0.00 0.00 80 1014.1
20260509183546 74 9 5.0 15.0 0.00 0.00 0.00 80 1014.1
20260509183045 74 360 3.0 9.0 0.00 0.00 0.00 80 1014.2
20260509182546 74 35 3.0 12.0 0.00 0.00 0.00 80 1014.2
20260509182527 74 55 6.0 12.0 0.00 0.00 0.00 80 1014.1
20260509182045 74 259 3.0 18.0 0.00 0.00 0.00 80 1014.1
20260509182016 74 272 2.0 18.0 0.00 0.00 0.00 80 1014.2
20260509181545 74 44 2.0 14.0 0.00 0.00 0.00 80 1014.2
20260509181046 74 343 0.0 12.0 0.00 0.00 0.00 80 1014.2
20260509180956 74 9 2.0 12.0 0.00 0.00 0.00 80 1014.2
20260509180545 74 261 4.0 10.0 0.00 0.00 0.00 80 1014.2
20260509180447 74 207 3.0 10.0 0.00 0.00 0.00 80 1014.1
20260509180045 74 261 1.0 5.0 0.00 0.00 0.00 80 1014.2
20260509175545 74 260 0.0 4.0 0.00 0.00 0.00 80 1014.3
20260509175426 74 19 0.0 4.0 0.00 0.00 0.00 80 1014.4
20260509175045 74 122 1.0 7.0 0.00 0.00 0.00 80 1014.4
20260509174917 74 29 1.0 7.0 0.00 0.00 0.00 80 1014.4
20260509174545 74 324 0.0 9.0 0.00 0.00 0.00 80 1014.4
20260509174406 74 20 3.0 9.0 0.00 0.00 0.00 80 1014.4
20260509174045 74 75 2.0 9.0 0.00 0.00 0.00 80 1014.5
20260509173856 74 340 5.0 9.0 0.00 0.00 0.00 80 1014.5
20260509173545 74 291 5.0 7.0 0.00 0.00 0.00 80 1014.4
20260509173347 74 352 2.0 6.0 0.00 0.00 0.00 80 1014.4
20260509173045 74 278 1.0 10.0 0.00 0.00 0.00 80 1014.4
20260509172836 74 195 2.0 10.0 0.00 0.00 0.00 80 1014.4
20260509172545 74 303 2.0 8.0 0.00 0.00 0.00 80 1014.4
20260509172327 74 267 2.0 8.0 0.00 0.00 0.00 80 1014.4
20260509172045 74 235 4.0 15.0 0.00 0.00 0.00 80 1014.4
20260509171816 74 235 3.0 15.0 0.00 0.00 0.00 79 1014.4
20260509171545 74 20 4.0 10.0 0.00 0.00 0.00 79 1014.4
20260509171307 74 249 5.0 8.0 0.00 0.00 0.00 79 1014.5
20260509171044 74 255 2.0 11.0 0.00 0.00 0.00 79 1014.5
20260509170756 74 321 1.0 14.0 0.00 0.00 0.00 79 1014.6
20260509170247 74 302 1.0 10.0 0.00 0.00 0.00 79 1014.7
20260509170044 74 354 5.0 10.0 0.00 0.00 0.00 79 1014.7
20260509165736 74 302 1.0 17.0 0.00 0.00 0.00 79 1014.8
20260509165545 74 54 4.0 17.0 0.00 0.00 0.00 79 1014.7
20260509165226 74 76 5.0 14.0 0.00 0.00 0.00 79 1014.8
20260509165044 74 302 5.0 9.0 0.00 0.00 0.00 79 1014.8
20260509164716 74 320 3.0 14.0 0.00 0.00 0.00 79 1014.9
20260509164545 74 22 7.0 14.0 0.00 0.00 0.00 79 1014.9
20260509164044 74 65 2.0 13.0 0.00 0.00 0.00 79 1015.0
20260509163656 74 34 3.0 21.0 0.00 0.00 0.00 79 1015.0
20260509163544 74 294 2.0 21.0 0.00 0.00 0.00 79 1015.1
20260509163146 74 360 4.0 23.0 0.00 0.00 0.00 79 1015.1
20260509163046 74 49 3.0 23.0 0.00 0.00 0.00 79 1015.0
20260509162636 74 35 6.0 19.0 0.00 0.00 0.00 79 1015.1
20260509162544 74 14 4.0 19.0 0.00 0.00 0.00 79 1015.1
20260509162126 74 72 2.0 13.0 0.00 0.00 0.00 79 1015.2
20260509162045 74 339 1.0 13.0 0.00 0.00 0.00 79 1015.3
20260509161615 74 35 5.0 10.0 0.00 0.12 0.00 79 1015.4
20260509161544 74 41 4.0 11.0 0.00 0.12 0.00 79 1015.4
20260509161106 74 16 3.0 11.0 0.00 0.16 0.00 79 1015.4
20260509161044 74 348 1.0 11.0 0.00 0.17 0.00 79 1015.4
20260509160556 74 60 4.0 18.0 0.00 0.21 0.00 79 1015.5
20260509160544 74 34 5.0 18.0 0.00 0.21 0.00 79 1015.6
20260509160046 74 24 3.0 13.0 0.00 0.24 0.00 79 1015.6
20260509160044 74 43 3.0 13.0 0.00 0.24 0.00 79 1015.6
20260509155544 74 339 7.0 16.0 0.00 0.35 0.00 79 1015.8
20260509155536 74 34 8.0 16.0 0.00 0.35 0.00 79 1015.8
20260509155044 74 35 2.0 9.0 0.00 0.46 0.00 79 1015.9
20260509155025 74 37 1.0 9.0 0.00 0.46 0.00 79 1015.9
20260509154544 74 360 4.0 10.0 0.00 0.54 0.00 79 1015.9
20260509154516 74 74 3.0 10.0 0.00 0.54 0.00 79 1015.9
20260509154044 74 3 4.0 10.0 0.00 0.59 0.00 79 1015.8
20260509154005 74 44 2.0 10.0 0.00 0.59 0.00 79 1015.9
20260509153544 74 214 5.0 8.0 0.00 0.67 0.00 80 1015.8
20260509153456 74 276 5.0 8.0 0.00 0.68 0.00 80 1015.8
20260509153043 74 16 3.0 12.0 0.00 0.73 0.00 80 1015.8
20260509152945 74 315 8.0 12.0 0.00 0.76 0.00 80 1015.9
20260509152544 74 27 4.0 10.0 0.00 0.87 0.00 80 1015.8
20260509152436 74 25 5.0 12.0 0.00 0.88 0.00 80 1015.8
20260509152044 74 88 7.0 13.0 0.00 0.93 0.00 80 1015.9
20260509151415 74 148 4.0 18.0 0.00 0.96 0.00 80 1016.0
20260509151044 74 212 4.0 15.0 0.00 1.02 0.00 80 1015.9
20260509150905 74 301 2.0 15.0 0.00 1.02 0.00 80 1015.9
20260509150544 74 96 2.0 13.0 0.00 1.09 0.00 80 1016.0
20260509150356 74 59 3.0 13.0 0.00 1.12 0.00 80 1016.0
20260509150044 74 270 4.0 8.0 0.00 1.14 0.00 80 1015.9
20260509145846 74 29 1.0 11.0 0.00 1.22 0.00 80 1016.0
20260509145543 74 4 3.0 11.0 0.00 1.25 0.00 80 1015.9
20260509145044 74 244 2.0 7.0 0.00 1.31 0.00 80 1016.0
20260509144825 74 313 3.0 18.0 0.00 1.33 0.00 80 1016.0
20260509144543 74 26 5.0 18.0 0.00 1.35 0.00 80 1016.0
20260509144315 74 43 7.0 17.0 0.00 1.37 0.00 80 1016.0
20260509143543 74 359 5.0 15.0 0.00 1.47 0.00 80 1016.0
20260509143255 74 53 7.0 15.0 0.00 1.60 0.00 80 1016.0
20260509143045 74 298 4.0 8.0 0.00 1.65 0.00 80 1016.0
20260509142745 74 351 1.0 6.0 0.00 1.68 0.00 80 1016.0
20260509142543 74 243 1.0 6.0 0.00 1.72 0.00 80 1016.0
20260509142235 74 311 2.0 12.0 0.00 1.78 0.00 80 1016.0
20260509142043 74 155 6.0 12.0 0.00 1.83 0.00 80 1016.1
20260509141725 74 200 0.0 8.0 0.00 1.85 0.00 80 1016.1
20260509141544 74 332 0.0 10.0 0.00 1.91 0.00 80 1016.2
20260509141215 74 322 3.0 10.0 0.00 1.96 0.00 80 1016.2
20260509141043 74 19 3.0 8.0 0.00 1.97 0.00 80 1016.2
20260509140705 74 309 5.0 7.0 0.00 2.03 0.00 80 1016.1
20260509140544 74 271 3.0 7.0 0.00 2.04 0.00 80 1016.1
20260509140155 74 67 1.0 5.0 0.00 2.09 0.00 80 1016.1
20260509140043 74 246 1.0 4.0 0.00 2.13 0.00 80 1016.1
20260509135645 74 272 1.0 13.0 0.00 2.17 0.00 80 1016.1
20260509135543 74 210 0.0 13.0 0.00 2.18 0.00 80 1016.0
20260509135134 74 56 7.0 11.0 0.00 2.25 0.00 80 1016.1
20260509135043 74 107 5.0 11.0 0.00 2.25 0.00 80 1016.1
20260509134625 74 250 2.0 6.0 0.00 2.27 0.00 80 1016.1
20260509134543 74 322 0.0 3.0 0.00 2.29 0.00 80 1016.1
20260509134114 74 295 2.0 10.0 0.00 2.36 0.00 79 1016.1
20260509134043 74 260 3.0 10.0 0.00 2.37 0.00 80 1016.1
20260509133605 74 14 4.0 10.0 0.00 2.48 0.00 80 1016.1
20260509133544 74 31 4.0 10.0 0.00 2.48 0.00 80 1016.1
20260509133054 74 7 1.0 8.0 0.00 2.63 0.00 80 1016.0
20260509133043 74 34 0.0 8.0 0.00 2.63 0.00 80 1016.0
20260509132545 74 5 0.0 6.0 0.00 2.69 0.00 80 1016.0
20260509132543 74 10 0.0 6.0 0.00 2.69 0.00 80 1016.0
20260509132043 74 262 2.0 3.0 0.00 2.78 0.00 80 1016.0
20260509132034 74 305 1.0 3.0 0.00 2.78 0.00 80 1015.9
20260509131543 74 286 0.0 7.0 0.00 2.81 0.00 80 1015.9
20260509131524 74 308 0.0 7.0 0.00 2.81 0.00 80 1015.9
20260509131043 74 322 3.0 10.0 0.00 2.90 0.00 80 1015.8
20260509131014 74 334 5.0 10.0 0.00 2.90 0.00 80 1015.8
20260509130543 74 294 1.0 11.0 0.00 2.99 0.00 80 1015.7
20260509130504 74 298 2.0 11.0 0.00 3.04 0.00 80 1015.7
20260509130042 74 356 2.0 9.0 0.00 3.10 0.00 80 1015.6
20260509125954 74 26 2.0 12.0 0.00 3.11 0.00 80 1015.7
20260509125543 74 267 4.0 12.0 0.00 3.17 0.00 80 1015.5
20260509125444 74 358 2.0 11.0 0.00 3.22 0.00 80 1015.5
20260509125042 74 52 5.0 18.0 0.00 3.27 0.00 79 1015.5
20260509124934 74 100 6.0 18.0 0.00 3.29 0.00 79 1015.5
20260509124543 74 352 2.0 8.0 0.00 3.34 0.00 80 1015.3
20260509124424 74 20 4.0 14.0 0.00 3.35 0.00 80 1015.3
20260509124043 74 50 5.0 14.0 0.00 3.44 0.00 80 1015.3
20260509123914 74 2 5.0 13.0 0.00 3.48 0.00 80 1015.3
20260509123543 74 48 2.0 14.0 0.00 3.53 0.00 80 1015.3
20260509123404 74 235 2.0 14.0 0.00 3.56 0.00 80 1015.2
20260509123043 74 284 2.0 15.0 0.00 3.63 0.00 80 1015.2
20260509122854 74 318 7.0 15.0 0.00 3.67 0.00 80 1015.3
20260509122542 74 255 6.0 15.0 0.00 3.68 0.00 80 1015.1
20260509122344 74 343 3.0 10.0 0.00 3.69 0.00 80 1015.2
20260509122043 74 327 2.0 15.0 0.00 3.70 0.00 80 1015.1
20260509121834 74 225 3.0 15.0 0.00 3.74 0.00 80 1015.1
20260509121542 74 271 4.0 26.0 0.00 3.79 0.00 80 1015.1
20260509121324 74 53 11.0 26.0 0.00 3.82 0.00 80 1015.0
20260509121042 74 40 3.0 7.0 0.00 3.88 0.00 80 1015.0
20260509120814 74 269 2.0 11.0 0.00 3.93 0.00 80 1014.9
20260509120543 74 256 5.0 17.0 0.00 3.95 0.00 80 1014.9
20260509120303 74 40 7.0 17.0 0.00 4.00 0.00 80 1014.9
20260509120042 74 358 4.0 11.0 0.00 4.05 0.00 80 1014.8
20260509115754 74 314 3.0 13.0 0.00 4.08 0.00 80 1014.8
20260509115543 74 325 6.0 13.0 0.00 4.09 0.00 80 1014.8
20260509115243 74 298 2.0 9.0 0.00 4.16 0.00 80 1014.8
20260509115042 74 331 2.0 13.0 0.00 4.20 0.00 80 1014.8
20260509114734 74 343 6.0 14.0 0.00 4.21 0.00 80 1014.8
20260509114542 74 264 3.0 14.0 0.00 4.26 0.00 80 1014.8
20260509114224 74 22 7.0 12.0 0.00 4.31 0.00 80 1014.7
20260509114042 74 5 3.0 11.0 0.00 4.32 0.00 80 1014.7
20260509113713 74 67 5.0 11.0 0.00 4.37 0.00 80 1014.7
20260509113542 74 338 2.0 11.0 0.00 4.38 0.00 80 1014.6
20260509113204 74 291 3.0 14.0 0.00 4.44 0.00 80 1014.5
20260509113042 74 41 8.0 14.0 0.00 4.45 0.00 80 1014.5
20260509112653 74 13 3.0 14.0 0.00 4.48 0.00 80 1014.6
20260509112542 74 295 6.0 14.0 0.00 4.51 0.00 80 1014.6
20260509112144 74 279 2.0 16.0 0.00 4.54 0.00 80 1014.6
20260509112042 74 67 2.0 16.0 0.00 4.54 0.00 80 1014.6
20260509111633 74 333 5.0 20.0 0.00 4.62 0.00 80 1014.6
20260509111542 74 351 3.0 20.0 0.00 4.65 0.00 80 1014.6
20260509111123 74 225 3.0 12.0 0.00 4.70 0.00 80 1014.6
20260509111042 74 43 3.0 19.0 0.00 4.70 0.00 80 1014.7
20260509110613 74 37 8.0 19.0 0.00 4.74 0.00 80 1014.7
20260509110542 74 57 2.0 18.0 0.00 4.74 0.00 80 1014.7
20260509110042 74 260 4.0 9.0 0.00 4.78 0.00 80 1014.5
20260509105553 74 249 3.0 14.0 0.00 4.81 0.00 80 1014.6
20260509105542 74 300 3.0 14.0 0.00 4.81 0.00 80 1014.5
20260509105044 74 52 9.0 24.0 0.00 4.88 0.00 80 1014.7
20260509105042 74 48 8.0 24.0 0.00 4.88 0.00 80 1014.7
20260509104542 74 64 4.0 15.0 0.00 4.92 0.00 80 1014.6
20260509104533 74 28 4.0 15.0 0.00 4.92 0.00 80 1014.6
20260509104041 74 260 1.0 8.0 0.00 4.98 0.00 80 1014.7
20260509104023 74 302 1.0 8.0 0.00 4.98 0.00 80 1014.7
20260509103513 74 331 0.0 14.0 0.00 5.00 0.00 80 1014.7
20260509103042 74 30 2.0 14.0 0.00 5.03 0.00 80 1014.6
20260509103003 74 174 1.0 12.0 0.00 5.04 0.00 80 1014.6
20260509102542 74 125 6.0 12.0 0.00 5.10 0.00 80 1014.5
20260509102453 74 31 4.0 12.0 0.00 5.10 0.00 80 1014.5
20260509102041 74 209 7.0 12.0 0.00 5.11 0.00 80 1014.4
20260509101943 74 269 4.0 12.0 0.00 5.11 0.00 80 1014.4
20260509101542 74 359 6.0 13.0 0.00 5.16 0.00 80 1014.4
20260509101433 74 12 6.0 13.0 0.00 5.17 0.00 80 1014.4
20260509101041 74 345 4.0 14.0 0.00 5.23 0.00 80 1014.3
20260509100923 74 323 1.0 15.0 0.00 5.23 0.00 80 1014.3
20260509100542 74 44 8.0 15.0 0.00 5.25 0.00 80 1014.5
20260509100413 74 11 3.0 12.0 0.00 5.25 0.00 80 1014.4
20260509100041 74 254 3.0 16.0 0.00 5.27 0.00 80 1014.4